This is the latest recevied weather packets stored in our database for station/object CQ0XSM-11. If no packets are shown the sender has not sent any weather packets the latest 10 day(s).
| Time | Temp. | Humidity | Pressure | Rain* | Wind** | Luminosity | Snow |
|---|---|---|---|---|---|---|---|
| 1777448524 | 10.56° C | 100% | 988.4 hPa | 4.06 mm | - | - | - |
| 1777448195 | 11.11° C | 100% | 988.2 hPa | 4.06 mm | - | - | - |
| 1777447903 | 11.11° C | 100% | 988.2 hPa | 4.06 mm | - | - | - |
| 1777447611 | 11.11° C | 100% | 988.1 hPa | 4.06 mm | - | - | - |
| 1777447301 | 11.11° C | 100% | 988.1 hPa | 3.81 mm | - | - | - |
| 1777446984 | 11.11° C | 100% | 988.1 hPa | 3.81 mm | - | - | - |
| 1777446705 | 11.11° C | 100% | 988 hPa | 3.81 mm | - | - | - |
| 1777446392 | 11.11° C | 100% | 988.1 hPa | 3.81 mm | - | - | - |
| 1777446076 | 11.11° C | 100% | 988 hPa | 3.81 mm | - | - | - |
| 1777445769 | 11.11° C | 100% | 988 hPa | 3.81 mm | - | - | - |
| 1777445499 | 11.11° C | 100% | 988 hPa | 3.81 mm | - | - | - |
| 1777445186 | 11.11° C | 100% | 988 hPa | 3.81 mm | - | - | - |
| 1777444885 | 11.11° C | 100% | 988 hPa | 2.79 mm | - | - | - |
| 1777444263 | 11.11° C | 100% | 987.9 hPa | 2.03 mm | - | - | - |
| 1777443951 | 11.11° C | 100% | 987.9 hPa | 1.78 mm | - | - | - |
| 1777443669 | 11.11° C | 100% | 987.8 hPa | 1.78 mm | - | - | - |
| 1777443352 | 11.11° C | 100% | 987.9 hPa | 1.27 mm | - | - | - |
| 1777443087 | 11.11° C | 100% | 987.8 hPa | 1.27 mm | - | - | - |
| 1777442758 | 11.11° C | 100% | 987.7 hPa | 1.02 mm | - | - | - |
| 1777442466 | 11.67° C | 100% | 987.8 hPa | 1.02 mm | - | - | - |
| 1777442125 | 11.67° C | 100% | 987.7 hPa | 1.02 mm | - | - | - |
| 1777441855 | 11.67° C | 100% | 987.7 hPa | 1.02 mm | - | - | - |
| 1777441531 | 11.67° C | 100% | 987.6 hPa | 1.02 mm | - | - | - |
| 1777441251 | 11.67° C | 100% | 987.5 hPa | 1.02 mm | - | - | - |
| 1777440923 | 11.11° C | 100% | 987.5 hPa | 1.02 mm | - | - | - |
* Rain since midnight (hover to see other rain measurements)
** Current wind speed in m/s (hover to see current wind gust speed)